THOR ABLESTAR DEB, 558

Orbit data source: Space-Track

THOR ABLESTAR DEB, 558 is space debris in LEO originally from a launch on Thu, 29 Jun 1961 UTC launched from the Air Force Eastern Test Range (AFETR). Debris objects in space refer to the collection of defunct objects orbiting the Earth. Examples of debris include non-operational satellites, rocket bodies, and fragments generated from explosions, collisions, or faulty payload assembly.

Loading next visibility...
Identifier
558, 1961-015GQ
Orbit
LEO
Last TLE update
23 hours ago
Origin
Manufacturer
Unknown
Mission
Spacecraft
Bus & Motor
Unknown
Mass
Unknown
Launch date (UTC)
1961-06-29 (64 years ago)
Launch vehicle
Unknown
Launch site
Air Force Eastern Test Range (AFETR)
Object type
Payload
Rocket body
Debris
Shape & HBR
Unknown
Radar Cross Section
Small (<0.1 m²)

Expand to show TLE details & history

TLE from 23 hours ago
0 THOR ABLESTAR DEB
1 00558U 61015GQ  25128.81619706  .00000172  00000-0  57617-3 0  9996
2 00558  65.6984 300.9412 0481728 261.2579 204.1460 12.86384168997637
Epoch: 2025-05-08T19:35Z
Definitive object data (Epoch: 2025-05-08T19:35:19.425Z)
Latitude
62.61329°
Longitude
-99.93839°
Altitude
1,666.783 km
Speed
6.888 km/s
True Right ascension
04h 03m 05s
True Declination
62° 29' 19"
Sunlit
Object was in daylight at TLE epoch
Visualization TLE readout
Latitude
-33.63994°
Longitude
120.74594°
Altitude
1,139.724 km
Speed
7.371 km/s
Apparent Right ascension
17h 14m 37s
Apparent Declination
-39° 19' 20"
Sunlit
Object is in full shadow
Visualization observer readout
Local Sidereal Time
03:15:46
Azimuth
261.852° W
Elevation
-67.212°
Doppler factor
1
Orbital elements
Apogee altitude
1,685.076 km
Perigee altitude
943.924 km
Semi-major axis
7,692.637 km
Eccentricity
0.0481728
Inclination
65.6984°
RAAN
300.9412°
Arg. of periapsis
261.2579°
True anomaly
202.00623°
Mean anomaly
204.146°
Eccentric anomaly
203.06468°
Mean motion
3.21685 °/min
BSTAR
0.00057617
Orbital period
111.91 mins
Loading maneuver chart data...
Loading SW <> Apogee altitude chart data...

THOR ABLESTAR DEB Visibility forecast

Observer location: undefined°, undefined°

Span
Click to sort rows by Start time (UTC) header in descending order
Start Az.
Max El. time (UTC)
Max El. Az.
Max El.
End time (UTC)
End Az.
14 mins2025-05-09 19:47:51.761Z342.81° N2025-05-09 19:54:51.761Z30.136° NE22.499°2025-05-09 20:01:51.761Z81.399° E
17 mins2025-05-09 21:43:51.761Z332.699° NNW2025-05-09 21:52:51.761Z67.632° E43.594°2025-05-09 22:00:51.761Z140.685° SSE
13 mins2025-05-09 23:40:51.761Z306.295° NW2025-05-09 23:46:51.761Z262.101° W24.975°2025-05-09 23:53:51.761Z204.483° SW
16 mins2025-05-10 12:09:51.761Z181.282° SSW2025-05-10 12:16:51.761Z115.711° SE38.962°2025-05-10 12:25:51.761Z39.434° NE
16 mins2025-05-10 14:05:51.761Z246.725° WSW2025-05-10 14:12:51.761Z310.461° NW35.646°2025-05-10 14:21:51.761Z22.068° NNE
11 mins2025-05-10 16:06:51.761Z306.243° NW2025-05-10 16:11:51.761Z339.652° N17.367°2025-05-10 16:17:51.761Z17.564° NNE
8 mins2025-05-10 18:08:51.761Z346.931° N2025-05-10 18:12:51.761Z12.508° NNE14.319°2025-05-10 18:16:51.761Z37.81° NE
|